QPF
0.01 0.01 0.01 0.01 0.01 0.02 0.02 0.03 0.02 0.02 0.03 0.03 0.04 0.04 0.03 0.03 0.03 0.02 0.01 0.01 0.01 0.02 0.04 0.06 0.05 0.04 0.03 0.03 0.03 0.03 0.03 0.03 0.02 0.02 0.05 0.10 0.13 0.11 0.06 0.03 0.02 0.02 0.02
0.01 0.01 0.01 0.01 0.01 0.01 0.01 0.02 0.02 0.02 0.02 0.03 0.03 0.03 0.03 0.03 0.04 0.03 0.02 0.01 0.01 0.01 0.03 0.06 0.06 0.06 0.05 0.04 0.03 0.03 0.03 0.03 0.03 0.02 0.03 0.07 0.11 0.14 0.12 0.05 0.03 0.03 0.03
0.01 0.01 0.01 0.00 0.01 0.01 0.01 0.01 0.01 0.02 0.02 0.02 0.02 0.03 0.03 0.03 0.03 0.04 0.02 0.01 0.01 0.01 0.02 0.05 0.06 0.05 0.06 0.06 0.04 0.03 0.03 0.04 0.04 0.03 0.03 0.06 0.07 0.10 0.15 0.12 0.06 0.04 0.03
0.02 0.02 0.01 0.01 0.01 0.01 0.01 0.01 0.01 0.02 0.01 0.01 0.01 0.02 0.02 0.02 0.03 0.03 0.03 0.02 0.01 0.01 0.01 0.03 0.05 0.04 0.05 0.05 0.05 0.04 0.04 0.05 0.05 0.04 0.04 0.06 0.07 0.07 0.10 0.12 0.09 0.06 0.04
0.02 0.02 0.02 0.02 0.02 0.01 0.01 0.01 0.01 0.01 0.01 0.01 0.01 0.01 0.02 0.02 0.02 0.02 0.02 0.02 0.01 0.01 0.01 0.01 0.02 0.03 0.04 0.05 0.05 0.05 0.05 0.05 0.06 0.05 0.04 0.05 0.08 0.10 0.09 0.10 0.09 0.09 0.07
0.02 0.02 0.02 0.02 0.03 0.02 0.02 0.01 0.01 0.01 0.01 0.01 0.01 0.02 0.02 0.02 0.02 0.02 0.01 0.01 0.01 0.01 0.02 0.02 0.01 0.01 0.02 0.04 0.04 0.04 0.05 0.06 0.08 0.08 0.06 0.04 0.07 0.10 0.13 0.12 0.09 0.07 0.07
0.04 0.03 0.02 0.02 0.02 0.02 0.02 0.01 0.01 0.01 0.02 0.01 0.01 0.02 0.03 0.04 0.03 0.03 0.02 0.01 0.01 0.01 0.02 0.03 0.03 0.02 0.02 0.03 0.03 0.03 0.04 0.06 0.08 0.12 0.09 0.05 0.05 0.09 0.12 0.17 0.14 0.09 0.07
0.04 0.04 0.03 0.03 0.02 0.02 0.02 0.02 0.02 0.02 0.02 0.02 0.02 0.02 0.03 0.05 0.06 0.04 0.02 0.01 0.00 0.01 0.02 0.03 0.03 0.03 0.03 0.02 0.02 0.03 0.04 0.04 0.07 0.12 0.09 0.07 0.05 0.07 0.12 0.15 0.15 0.10 0.08
0.06 0.05 0.04 0.04 0.04 0.04 0.03 0.03 0.02 0.02 0.03 0.03 0.02 0.02 0.03 0.04 0.07 0.06 0.03 0.01 0.00 0.01 0.01 0.02 0.03 0.03 0.03 0.03 0.03 0.03 0.04 0.04 0.05 0.10 0.12 0.10 0.08 0.07 0.08 0.11 0.15 0.13 0.08
0.06 0.05 0.04 0.04 0.04 0.03 0.03 0.02 0.02 0.02 0.02 0.03 0.02 0.01 0.02 0.03 0.07 0.09 0.05 0.02 0.00 0.01 0.01 0.01 0.02 0.02 0.03 0.03 0.03 0.03 0.04 0.05 0.05 0.07 0.12 0.13 0.13 0.10 0.11 0.10 0.12 0.13 0.09
0.08 0.06 0.05 0.04 0.04 0.03 0.03 0.02 0.02 0.02 0.01 0.02 0.02 0.01 0.01 0.02 0.05 0.08 0.06 0.03 0.01 0.01 0.01 0.01 0.01 0.02 0.02 0.02 0.03 0.03 0.04 0.04 0.05 0.06 0.08 0.10 0.11 0.11 0.13 0.12 0.12 0.12 0.09
0.07 0.07 0.05 0.04 0.04 0.03 0.03 0.02 0.02 0.02 0.01 0.01 0.02 0.03 0.02 0.02 0.03 0.07 0.06 0.03 0.01 0.01 0.01 0.01 0.01 0.02 0.03 0.04 0.03 0.04 0.03 0.04 0.05 0.05 0.06 0.07 0.08 0.08 0.10 0.14 0.14 0.13 0.10
0.05 0.05 0.05 0.04 0.04 0.04 0.03 0.03 0.03 0.02 0.02 0.01 0.02 0.04 0.03 0.02 0.03 0.04 0.06 0.04 0.01 0.01 0.01 0.01 0.01 0.01 0.02 0.04 0.05 0.05 0.04 0.04 0.04 0.04 0.05 0.05 0.06 0.06 0.07 0.12 0.13 0.13 0.10
0.05 0.04 0.04 0.03 0.03 0.03 0.03 0.03 0.04 0.03 0.03 0.02 0.01 0.03 0.05 0.04 0.03 0.04 0.04 0.05 0.03 0.01 0.01 0.01 0.01 0.01 0.02 0.02 0.03 0.05 0.05 0.04 0.04 0.03 0.03 0.03 0.04 0.05 0.05 0.09 0.14 0.13 0.09
0.06 0.05 0.04 0.03 0.03 0.03 0.02 0.02 0.03 0.03 0.03 0.03 0.02 0.02 0.03 0.05 0.04 0.05 0.04 0.04 0.04 0.02 0.01 0.01 0.01 0.01 0.01 0.02 0.03 0.03 0.03 0.04 0.04 0.03 0.03 0.03 0.03 0.04 0.04 0.06 0.12 0.14 0.09
0.08 0.08 0.07 0.04 0.03 0.03 0.03 0.03 0.03 0.02 0.03 0.03 0.03 0.03 0.03 0.04 0.05 0.05 0.06 0.04 0.04 0.03 0.01 0.01 0.01 0.01 0.01 0.01 0.02 0.02 0.03 0.04 0.04 0.03 0.03 0.04 0.03 0.04 0.04 0.06 0.08 0.12 0.11
0.08 0.10 0.10 0.09 0.06 0.04 0.03 0.04 0.03 0.03 0.03 0.03 0.03 0.03 0.02 0.02 0.04 0.04 0.06 0.06 0.04 0.03 0.02 0.01 0.01 0.01 0.02 0.02 0.03 0.03 0.03 0.03 0.04 0.04 0.05 0.05 0.04 0.04 0.05 0.06 0.08 0.10 0.10
0.05 0.07 0.08 0.10 0.10 0.08 0.05 0.04 0.04 0.04 0.03 0.03 0.03 0.03 0.03 0.03 0.03 0.03 0.04 0.06 0.05 0.04 0.04 0.02 0.01 0.01 0.01 0.02 0.02 0.03 0.04 0.04 0.04 0.04 0.05 0.05 0.04 0.04 0.04 0.05 0.07 0.08 0.09
0.03 0.05 0.06 0.07 0.08 0.09 0.09 0.08 0.06 0.05 0.04 0.04 0.03 0.03 0.03 0.03 0.03 0.03 0.03 0.04 0.05 0.04 0.04 0.04 0.03 0.03 0.02 0.01 0.02 0.02 0.03 0.05 0.05 0.06 0.06 0.05 0.05 0.04 0.05 0.05 0.07 0.08 0.08
0.01 0.03 0.06 0.07 0.07 0.07 0.08 0.09 0.09 0.08 0.07 0.05 0.04 0.04 0.03 0.03 0.03 0.03 0.03 0.04 0.04 0.04 0.03 0.03 0.03 0.03 0.02 0.02 0.02 0.02 0.02 0.03 0.05 0.06 0.06 0.06 0.06 0.06 0.05 0.06 0.06 0.08 0.09
0.01 0.01 0.02 0.04 0.06 0.07 0.07 0.08 0.09 0.09 0.08 0.07 0.06 0.05 0.04 0.04 0.03 0.03 0.03 0.03 0.05 0.04 0.03 0.03 0.03 0.02 0.02 0.02 0.02 0.02 0.03 0.03 0.04 0.05 0.06 0.06 0.06 0.06 0.07 0.07 0.07 0.08 0.09
0.01 0.01 0.02 0.02 0.03 0.05 0.06 0.07 0.08 0.07 0.07 0.07 0.07 0.07 0.06 0.05 0.05 0.04 0.04 0.04 0.04 0.04 0.03 0.03 0.03 0.02 0.02 0.01 0.01 0.02 0.03 0.04 0.04 0.05 0.05 0.06 0.06 0.07 0.07 0.07 0.07 0.08 0.09
0.01 0.01 0.02 0.02 0.03 0.04 0.04 0.05 0.06 0.06 0.05 0.05 0.06 0.06 0.06 0.06 0.05 0.04 0.04 0.04 0.04 0.04 0.03 0.03 0.02 0.01 0.01 0.01 0.02 0.03 0.03 0.03 0.04 0.05 0.07 0.07 0.06 0.06 0.07 0.07 0.07 0.07 0.08
0.01 0.01 0.01 0.02 0.03 0.04 0.04 0.04 0.05 0.05 0.05 0.05 0.04 0.05 0.05 0.05 0.04 0.04 0.04 0.03 0.02 0.02 0.02 0.02 0.01 0.01 0.01 0.01 0.02 0.02 0.03 0.04 0.05 0.06 0.06 0.07 0.06 0.06 0.07 0.07 0.07 0.07 0.07
0.01 0.01 0.01 0.01 0.01 0.02 0.04 0.05 0.05 0.04 0.04 0.04 0.05 0.04 0.04 0.04 0.04 0.04 0.04 0.03 0.02 0.01 0.01 0.02 0.02 0.02 0.02 0.02 0.03 0.03 0.04 0.05 0.05 0.05 0.05 0.06 0.06 0.05 0.06 0.06 0.07 0.07 0.07
0.01 0.01 0.01 0.01 0.01 0.02 0.02 0.03 0.04 0.05 0.05 0.04 0.04 0.04 0.05 0.05 0.05 0.05 0.04 0.03 0.03 0.02 0.02 0.02 0.02 0.03 0.02 0.02 0.03 0.03 0.04 0.04 0.05 0.05 0.05 0.05 0.05 0.04 0.05 0.06 0.06 0.06 0.07
MSLP
1022.12 1021.95 1021.73 1021.46 1021.16 1020.86 1020.58 1020.33 1020.11 1019.94 1019.81 1019.72 1019.65 1019.63 1019.63 1019.65 1019.68 1019.70 1019.71 1019.67 1019.60 1019.48 1019.34 1019.18 1019.04 1018.94 1018.90 1018.92 1019.00 1019.12 1019.27 1019.41 1019.52 1019.60 1019.64 1019.64 1019.63 1019.61 1019.60 1019.62 1019.66 1019.74 1019.83
1022.53 1022.35 1022.12 1021.85 1021.56 1021.27 1021.00 1020.74 1020.51 1020.32 1020.15 1020.01 1019.91 1019.86 1019.84 1019.87 1019.92 1019.98 1020.03 1020.04 1020.00 1019.91 1019.76 1019.59 1019.42 1019.27 1019.17 1019.14 1019.17 1019.28 1019.42 1019.57 1019.72 1019.85 1019.94 1019.99 1020.01 1020.01 1020.01 1020.02 1020.04 1020.09 1020.16
1022.90 1022.73 1022.52 1022.27 1022.02 1021.75 1021.50 1021.24 1021.00 1020.77 1020.56 1020.37 1020.22 1020.12 1020.08 1020.10 1020.16 1020.25 1020.33 1020.39 1020.38 1020.31 1020.17 1019.99 1019.77 1019.57 1019.40 1019.31 1019.29 1019.35 1019.48 1019.64 1019.82 1019.99 1020.14 1020.25 1020.32 1020.36 1020.38 1020.40 1020.41 1020.44 1020.49
1023.23 1023.09 1022.91 1022.72 1022.51 1022.29 1022.06 1021.82 1021.57 1021.30 1021.04 1020.79 1020.58 1020.43 1020.35 1020.34 1020.40 1020.50 1020.62 1020.70 1020.73 1020.68 1020.55 1020.34 1020.10 1019.84 1019.61 1019.45 1019.37 1019.38 1019.47 1019.63 1019.83 1020.04 1020.24 1020.41 1020.54 1020.64 1020.69 1020.73 1020.76 1020.78 1020.81
1023.56 1023.44 1023.31 1023.16 1023.01 1022.84 1022.65 1022.43 1022.17 1021.87 1021.56 1021.25 1020.98 1020.76 1020.64 1020.60 1020.64 1020.74 1020.87 1020.98 1021.03 1021.00 1020.88 1020.67 1020.40 1020.10 1019.82 1019.60 1019.45 1019.41 1019.46 1019.60 1019.80 1020.03 1020.27 1020.50 1020.69 1020.84 1020.95 1021.02 1021.07 1021.10 1021.12
1023.89 1023.79 1023.70 1023.60 1023.51 1023.39 1023.23 1023.03 1022.76 1022.44 1022.09 1021.73 1021.39 1021.12 1020.94 1020.86 1020.88 1020.97 1021.10 1021.22 1021.28 1021.27 1021.16 1020.96 1020.68 1020.36 1020.05 1019.77 1019.58 1019.48 1019.49 1019.59 1019.78 1020.02 1020.28 1020.55 1020.79 1020.99 1021.15 1021.27 1021.34 1021.39 1021.42
1024.24 1024.15 1024.08 1024.03 1023.97 1023.89 1023.76 1023.57 1023.31 1022.97 1022.59 1022.19 1021.81 1021.49 1021.27 1021.14 1021.13 1021.20 1021.31 1021.42 1021.50 1021.50 1021.41 1021.22 1020.95 1020.64 1020.31 1020.02 1019.79 1019.64 1019.61 1019.67 1019.83 1020.05 1020.32 1020.60 1020.88 1021.12 1021.32 1021.48 1021.60 1021.67 1021.71
1024.63 1024.53 1024.46 1024.42 1024.38 1024.32 1024.21 1024.03 1023.77 1023.43 1023.04 1022.61 1022.21 1021.86 1021.60 1021.44 1021.39 1021.42 1021.51 1021.61 1021.68 1021.69 1021.62 1021.46 1021.23 1020.94 1020.63 1020.33 1020.09 1019.92 1019.84 1019.87 1019.99 1020.18 1020.43 1020.71 1020.99 1021.26 1021.49 1021.68 1021.83 1021.93 1021.99
1025.04 1024.92 1024.83 1024.78 1024.74 1024.68 1024.57 1024.39 1024.14 1023.80 1023.41 1023.00 1022.59 1022.23 1021.94 1021.75 1021.66 1021.66 1021.71 1021.78 1021.84 1021.85 1021.80 1021.68 1021.49 1021.25 1020.98 1020.71 1020.48 1020.30 1020.20 1020.19 1020.26 1020.41 1020.63 1020.88 1021.15 1021.42 1021.67 1021.88 1022.04 1022.17 1022.26
1025.48 1025.32 1025.20 1025.12 1025.05 1024.96 1024.84 1024.67 1024.42 1024.10 1023.73 1023.33 1022.94 1022.59 1022.30 1022.09 1021.96 1021.91 1021.92 1021.95 1021.99 1021.99 1021.96 1021.87 1021.73 1021.55 1021.33 1021.12 1020.92 1020.75 1020.64 1020.60 1020.64 1020.74 1020.91 1021.12 1021.36 1021.61 1021.85 1022.07 1022.25 1022.39 1022.50
1025.92 1025.72 1025.56 1025.43 1025.31 1025.20 1025.05 1024.86 1024.62 1024.32 1023.98 1023.62 1023.27 1022.94 1022.66 1022.44 1022.28 1022.19 1022.14 1022.13 1022.12 1022.12 1022.09 1022.03 1021.94 1021.81 1021.67 1021.51 1021.35 1021.22 1021.12 1021.06 1021.07 1021.13 1021.25 1021.42 1021.62 1021.84 1022.06 1022.26 1022.44 1022.58 1022.70
1026.34 1026.10 1025.89 1025.71 1025.55 1025.38 1025.20 1025.00 1024.76 1024.49 1024.19 1023.88 1023.57 1023.27 1023.01 1022.79 1022.61 1022.47 1022.37 1022.30 1022.25 1022.22 1022.18 1022.14 1022.09 1022.02 1021.94 1021.84 1021.74 1021.65 1021.57 1021.52 1021.50 1021.53 1021.61 1021.73 1021.89 1022.07 1022.26 1022.44 1022.61 1022.74 1022.85
1026.71 1026.44 1026.19 1025.96 1025.74 1025.53 1025.31 1025.09 1024.85 1024.60 1024.34 1024.08 1023.82 1023.57 1023.34 1023.12 1022.92 1022.75 1022.60 1022.47 1022.37 1022.30 1022.24 1022.21 1022.18 1022.16 1022.14 1022.10 1022.06 1022.00 1021.95 1021.91 1021.90 1021.91 1021.96 1022.05 1022.17 1022.31 1022.46 1022.61 1022.75 1022.87 1022.96
1027.00 1026.71 1026.42 1026.15 1025.88 1025.62 1025.37 1025.13 1024.89 1024.66 1024.44 1024.22 1024.01 1023.81 1023.60 1023.40 1023.19 1022.98 1022.79 1022.61 1022.46 1022.35 1022.27 1022.23 1022.22 1022.23 1022.25 1022.27 1022.27 1022.26 1022.25 1022.23 1022.22 1022.23 1022.26 1022.33 1022.42 1022.52 1022.64 1022.76 1022.87 1022.96 1023.03
1027.20 1026.89 1026.57 1026.26 1025.96 1025.66 1025.37 1025.11 1024.87 1024.65 1024.46 1024.28 1024.12 1023.96 1023.78 1023.59 1023.38 1023.16 1022.93 1022.72 1022.53 1022.38 1022.28 1022.23 1022.22 1022.25 1022.29 1022.35 1022.39 1022.42 1022.44 1022.45 1022.45 1022.47 1022.50 1022.55 1022.62 1022.70 1022.79 1022.88 1022.95 1023.01 1023.06
1027.28 1026.96 1026.63 1026.30 1025.96 1025.62 1025.31 1025.03 1024.78 1024.57 1024.40 1024.25 1024.12 1023.99 1023.84 1023.67 1023.47 1023.24 1023.00 1022.76 1022.55 1022.38 1022.26 1022.20 1022.19 1022.22 1022.29 1022.36 1022.43 1022.49 1022.54 1022.57 1022.60 1022.62 1022.66 1022.70 1022.76 1022.82 1022.89 1022.95 1023.00 1023.04 1023.07
1027.26 1026.94 1026.60 1026.24 1025.88 1025.52 1025.18 1024.87 1024.61 1024.40 1024.24 1024.11 1024.00 1023.90 1023.77 1023.62 1023.44 1023.22 1022.98 1022.74 1022.52 1022.34 1022.21 1022.14 1022.13 1022.17 1022.24 1022.33 1022.41 1022.49 1022.56 1022.60 1022.64 1022.68 1022.72 1022.77 1022.82 1022.87 1022.92 1022.96 1023.00 1023.02 1023.03
1027.15 1026.82 1026.48 1026.11 1025.73 1025.35 1024.99 1024.66 1024.39 1024.16 1024.00 1023.87 1023.77 1023.68 1023.58 1023.45 1023.28 1023.08 1022.86 1022.64 1022.43 1022.26 1022.14 1022.07 1022.06 1022.10 1022.17 1022.26 1022.35 1022.43 1022.50 1022.56 1022.61 1022.66 1022.70 1022.74 1022.79 1022.83 1022.87 1022.90 1022.92 1022.94 1022.95
1026.96 1026.64 1026.29 1025.91 1025.52 1025.13 1024.75 1024.40 1024.11 1023.87 1023.69 1023.56 1023.46 1023.37 1023.28 1023.17 1023.03 1022.86 1022.66 1022.47 1022.28 1022.13 1022.03 1021.97 1021.97 1022.00 1022.07 1022.16 1022.24 1022.32 1022.39 1022.45 1022.50 1022.54 1022.58 1022.62 1022.66 1022.70 1022.73 1022.76 1022.78 1022.80 1022.81
1026.73 1026.41 1026.06 1025.68 1025.28 1024.87 1024.48 1024.11 1023.79 1023.53 1023.33 1023.19 1023.08 1022.99 1022.91 1022.81 1022.69 1022.54 1022.38 1022.22 1022.07 1021.95 1021.87 1021.83 1021.84 1021.88 1021.95 1022.02 1022.10 1022.17 1022.23 1022.28 1022.32 1022.36 1022.39 1022.42 1022.46 1022.49 1022.52 1022.55 1022.57 1022.60 1022.63
1026.46 1026.14 1025.79 1025.41 1025.01 1024.59 1024.18 1023.80 1023.46 1023.17 1022.95 1022.78 1022.66 1022.56 1022.47 1022.38 1022.28 1022.16 1022.04 1021.91 1021.80 1021.71 1021.66 1021.65 1021.67 1021.72 1021.78 1021.86 1021.92 1021.98 1022.03 1022.07 1022.09 1022.12 1022.14 1022.17 1022.20 1022.23 1022.25 1022.29 1022.32 1022.36 1022.41
1026.15 1025.83 1025.49 1025.11 1024.71 1024.29 1023.87 1023.47 1023.11 1022.80 1022.55 1022.36 1022.21 1022.10 1022.01 1021.92 1021.83 1021.73 1021.63 1021.54 1021.47 1021.42 1021.40 1021.41 1021.45 1021.51 1021.58 1021.65 1021.72 1021.77 1021.80 1021.83 1021.84 1021.86 1021.87 1021.89 1021.92 1021.95 1021.98 1022.02 1022.07 1022.13 1022.20
1025.79 1025.48 1025.14 1024.77 1024.36 1023.94 1023.51 1023.10 1022.73 1022.40 1022.13 1021.92 1021.75 1021.62 1021.51 1021.42 1021.34 1021.26 1021.18 1021.12 1021.08 1021.06 1021.07 1021.11 1021.18 1021.26 1021.34 1021.42 1021.48 1021.53 1021.56 1021.59 1021.60 1021.61 1021.62 1021.64 1021.67 1021.71 1021.76 1021.81 1021.87 1021.95 1022.03
1025.37 1025.07 1024.73 1024.36 1023.96 1023.53 1023.10 1022.69 1022.30 1021.96 1021.68 1021.44 1021.26 1021.11 1020.99 1020.89 1020.81 1020.74 1020.68 1020.65 1020.64 1020.65 1020.70 1020.77 1020.86 1020.97 1021.07 1021.16 1021.24 1021.30 1021.34 1021.37 1021.38 1021.40 1021.42 1021.45 1021.49 1021.55 1021.61 1021.68 1021.77 1021.86 1021.95
1024.87 1024.56 1024.23 1023.86 1023.46 1023.04 1022.62 1022.20 1021.81 1021.47 1021.17 1020.92 1020.72 1020.56 1020.43 1020.33 1020.25 1020.18 1020.14 1020.13 1020.14 1020.19 1020.28 1020.39 1020.51 1020.65 1020.79 1020.91 1021.01 1021.09 1021.14 1021.19 1021.22 1021.25 1021.29 1021.34 1021.40 1021.48 1021.57 1021.66 1021.77 1021.87 1021.98
1024.27 1023.96 1023.63 1023.26 1022.87 1022.46 1022.04 1021.64 1021.25 1020.91 1020.61 1020.35 1020.14 1019.97 1019.83 1019.72 1019.64 1019.58 1019.56 1019.57 1019.61 1019.70 1019.82 1019.97 1020.14 1020.32 1020.49 1020.65 1020.78 1020.89 1020.97 1021.04 1021.09 1021.15 1021.21 1021.29 1021.38 1021.49 1021.60 1021.73 1021.85 1021.98 1022.09
Thickness
5581 5582 5584 5586 5587 5589 5590 5592 5594 5596 5598 5600 5602 5604 5605 5607 5609 5612 5614 5617 5620 5623 5625 5628 5629 5631 5633 5634 5635 5637 5638 5639 5640 5641 5642 5643 5643 5643 5644 5644 5643 5643 5643
5571 5572 5573 5575 5576 5579 5580 5581 5583 5585 5587 5590 5592 5594 5596 5598 5600 5602 5605 5607 5611 5614 5617 5619 5622 5623 5625 5627 5629 5630 5631 5633 5634 5635 5636 5636 5637 5637 5638 5638 5638 5638 5637
5561 5562 5563 5564 5565 5567 5569 5571 5573 5575 5577 5579 5581 5583 5586 5589 5591 5593 5595 5598 5601 5604 5608 5610 5613 5615 5617 5619 5621 5623 5625 5626 5628 5628 5629 5630 5631 5631 5632 5632 5632 5632 5632
5549 5551 5552 5553 5554 5556 5558 5560 5562 5563 5565 5566 5569 5571 5575 5578 5581 5583 5585 5588 5591 5594 5597 5601 5604 5607 5609 5611 5614 5616 5618 5619 5621 5622 5623 5624 5624 5625 5626 5626 5626 5626 5626
5538 5539 5540 5541 5543 5545 5546 5548 5549 5551 5552 5554 5557 5560 5564 5567 5570 5572 5575 5578 5581 5584 5587 5591 5594 5597 5600 5603 5606 5608 5610 5612 5613 5615 5616 5617 5618 5618 5619 5620 5620 5620 5620
5526 5527 5528 5530 5531 5533 5534 5536 5537 5539 5540 5542 5546 5549 5551 5555 5558 5561 5564 5567 5570 5573 5576 5580 5584 5587 5590 5594 5597 5599 5601 5604 5606 5607 5608 5610 5611 5612 5613 5614 5614 5615 5614
5515 5515 5516 5518 5520 5521 5522 5523 5525 5526 5527 5530 5533 5535 5540 5544 5546 5549 5552 5555 5558 5561 5565 5568 5572 5576 5579 5583 5587 5590 5592 5594 5597 5599 5601 5602 5603 5605 5607 5607 5608 5608 5607
5502 5503 5504 5506 5507 5509 5509 5510 5512 5512 5514 5517 5519 5521 5525 5529 5533 5537 5539 5542 5545 5549 5552 5556 5560 5564 5568 5572 5576 5579 5582 5585 5587 5590 5592 5593 5595 5597 5599 5600 5601 5601 5601
5488 5490 5492 5494 5496 5497 5498 5499 5500 5500 5502 5503 5506 5509 5512 5516 5517 5522 5526 5529 5532 5535 5538 5542 5547 5552 5555 5559 5564 5567 5571 5574 5577 5580 5583 5584 5586 5588 5590 5592 5593 5593 5593
5475 5477 5479 5481 5483 5485 5486 5487 5489 5489 5490 5491 5493 5496 5499 5501 5503 5507 5511 5515 5518 5522 5525 5529 5534 5538 5543 5547 5552 5555 5559 5562 5566 5570 5573 5575 5577 5579 5581 5583 5585 5585 5585
5462 5464 5466 5468 5470 5472 5474 5476 5477 5478 5478 5480 5481 5483 5485 5487 5490 5493 5497 5499 5503 5508 5512 5516 5521 5525 5530 5534 5539 5543 5547 5550 5554 5558 5561 5564 5567 5569 5572 5574 5576 5576 5577
5449 5451 5453 5455 5457 5459 5461 5463 5465 5466 5467 5468 5470 5471 5473 5475 5477 5479 5482 5485 5489 5494 5498 5503 5508 5512 5517 5521 5526 5530 5534 5539 5542 5546 5550 5553 5556 5559 5561 5564 5566 5567 5568
5436 5438 5440 5441 5444 5446 5448 5450 5452 5454 5455 5456 5458 5459 5461 5464 5466 5467 5469 5471 5475 5479 5484 5489 5495 5499 5503 5508 5513 5517 5522 5526 5530 5534 5538 5541 5544 5547 5550 5553 5556 5558 5559
5423 5425 5427 5429 5431 5432 5435 5437 5439 5441 5443 5444 5446 5447 5449 5451 5453 5455 5457 5458 5460 5465 5470 5476 5481 5486 5490 5495 5499 5504 5508 5513 5518 5522 5526 5529 5532 5535 5538 5541 5544 5547 5549
5409 5412 5414 5416 5418 5419 5421 5423 5425 5428 5430 5431 5433 5434 5437 5439 5440 5442 5444 5446 5448 5452 5459 5464 5467 5472 5475 5480 5485 5490 5495 5499 5504 5509 5513 5517 5520 5524 5527 5529 5532 5534 5537
5395 5398 5401 5403 5404 5406 5408 5410 5412 5414 5416 5418 5420 5422 5424 5426 5427 5429 5431 5433 5436 5439 5444 5451 5452 5456 5460 5465 5470 5476 5481 5486 5491 5495 5500 5504 5508 5512 5515 5518 5520 5523 5526
5380 5382 5386 5388 5391 5393 5395 5396 5398 5400 5403 5405 5407 5409 5411 5413 5415 5416 5418 5420 5422 5425 5429 5435 5437 5441 5445 5450 5455 5461 5467 5472 5477 5482 5487 5491 5495 5500 5503 5506 5509 5512 5514
5365 5368 5371 5374 5376 5379 5381 5382 5385 5387 5389 5392 5394 5396 5398 5400 5401 5403 5405 5407 5409 5412 5414 5419 5422 5425 5430 5435 5440 5445 5452 5458 5464 5469 5474 5479 5483 5487 5490 5494 5497 5500 5502
5349 5352 5355 5359 5362 5364 5367 5369 5371 5374 5376 5378 5381 5383 5385 5386 5388 5389 5391 5394 5396 5399 5401 5404 5408 5411 5415 5420 5425 5430 5437 5443 5449 5455 5460 5465 5470 5474 5478 5481 5485 5488 5490
5333 5337 5340 5343 5346 5349 5353 5356 5358 5361 5363 5365 5367 5370 5371 5372 5375 5376 5378 5380 5382 5385 5387 5390 5394 5398 5401 5406 5410 5415 5421 5428 5434 5440 5446 5451 5456 5460 5464 5469 5473 5475 5477
5318 5321 5325 5329 5332 5335 5339 5343 5345 5347 5349 5351 5354 5356 5358 5360 5362 5363 5366 5368 5369 5372 5374 5377 5381 5384 5388 5391 5396 5401 5407 5413 5419 5426 5431 5437 5442 5447 5450 5455 5459 5462 5465
5303 5306 5309 5313 5317 5320 5324 5328 5331 5334 5336 5338 5340 5343 5344 5346 5349 5351 5353 5356 5358 5360 5363 5365 5368 5372 5376 5379 5383 5387 5392 5397 5405 5412 5416 5422 5427 5433 5437 5441 5445 5448 5452
5290 5292 5295 5299 5302 5306 5310 5314 5317 5320 5323 5325 5327 5329 5331 5334 5336 5338 5340 5343 5346 5349 5352 5355 5357 5361 5364 5368 5370 5374 5379 5385 5392 5398 5400 5408 5414 5419 5423 5427 5431 5435 5438
5276 5279 5283 5285 5289 5292 5296 5300 5304 5307 5310 5312 5314 5316 5318 5320 5323 5325 5327 5330 5333 5336 5340 5344 5348 5351 5353 5355 5358 5363 5368 5372 5378 5383 5386 5393 5399 5404 5408 5413 5417 5421 5424
5265 5267 5270 5273 5276 5279 5282 5286 5290 5293 5296 5299 5301 5304 5306 5308 5311 5314 5316 5319 5322 5325 5328 5332 5336 5339 5341 5344 5346 5350 5354 5358 5365 5370 5374 5379 5385 5388 5394 5399 5403 5406 5409
5254 5257 5259 5261 5263 5266 5269 5273 5276 5279 5283 5287 5289 5292 5295 5297 5300 5302 5304 5307 5311 5314 5316 5320 5323 5327 5330 5332 5335 5339 5343 5347 5352 5357 5362 5365 5370 5372 5377 5384 5388 5391 5394